Ephrata, WA
on Tuesday, November 27, 2012

Tuesday
Previous Day Next Day
Daily Summary
 ActualAverageRecord
Temperature
Mean Temperature °F 32°F  
Max Temperature 38°F 39°F 61°F (2014)
Min Temperature 26°F 25°F 2°F (1985)
Degree Days
Heating Degree Days 33 33  
Month to date heating degree days 673 738  
Since 1 July heating degree days 1168 1319  
Cooling Degree Days 0 0  
Month to date cooling degree days 0 0  
Year to date cooling degree days 837 772  
Moisture
Dew Point 28°F   
Average Humidity 88    
Maximum Humidity 100    
Minimum Humidity 76    
Precipitation
Precipitation 0.00 in 0.04 in 0.70 in (1984)
Month to date precipitation 1.00 0.94  
Year to date precipitation 6.86 6.49  
Wind
Wind Speed 2 mph   
Max Wind Speed 8 mph   
Max Gust Speed 9 mph   
Visibility 6 miles   
Events Fog   

Key: T is trace of precipitation, MM is missing value
Source: NWS Daily Summary
Time(PST)TemperatureDew PointHumidity Pressure Visibility Wind DirectionWind SpeedGust SpeedPrecipitationEvents Conditions
12:53 AM 30.0°F 27.0°F 88% 30.25 in 10.0 miles Calm Calm - N/A   Mostly Cloudy
1:53 AM 28.9°F 26.1°F 89% 30.25 in 10.0 miles North 3.5 mph - N/A   Partly Cloudy
2:53 AM 28.9°F 26.1°F 89% 30.25 in 10.0 miles Calm Calm - N/A   Clear
4:53 AM 28.9°F 27.0°F 92% 30.25 in 10.0 miles North 4.6 mph - N/A   Clear
5:53 AM 28.9°F 27.0°F 92% 30.26 in 10.0 miles NNE 4.6 mph - N/A   Clear
6:53 AM 27.0°F 25.0°F 92% 30.26 in 10.0 miles NNE 3.5 mph - N/A   Scattered Clouds
7:51 AM 28.4°F 26.6°F 93% 30.23 in 10.0 miles NNW 3.5 mph - N/A   Mostly Cloudy
7:53 AM 28.0°F 26.1°F 92% 30.27 in 10.0 miles North 3.5 mph - N/A   Mostly Cloudy
8:53 AM 30.9°F 28.0°F 89% 30.28 in 10.0 miles Calm Calm - N/A   Overcast
9:53 AM 32.0°F 28.9°F 88% 30.27 in 10.0 miles ENE 3.5 mph - N/A   Overcast
10:53 AM 32.0°F 28.9°F 88% 30.27 in 10.0 miles Calm Calm - N/A   Mostly Cloudy
12:53 PM 36.0°F 30.0°F 79% 30.23 in 10.0 miles Calm Calm - N/A   Overcast
1:53 PM 37.0°F 30.9°F 79% 30.21 in 10.0 miles Calm Calm - N/A   Overcast
2:53 PM 37.9°F 30.0°F 73% 30.20 in 10.0 miles North 5.8 mph - N/A   Mostly Cloudy
3:00 PM 37.4°F 30.2°F 75% 30.16 in 10.0 miles North 4.6 mph - N/A   Scattered Clouds
3:22 PM 37.4°F 30.2°F 75% 30.16 in 10.0 miles North 6.9 mph - N/A   Mostly Cloudy
3:53 PM 37.0°F 30.0°F 76% 30.20 in 10.0 miles North 6.9 mph - N/A   Overcast
4:53 PM 30.9°F 28.9°F 92% 30.19 in 10.0 miles SSE 3.5 mph - N/A   Scattered Clouds
5:53 PM 30.0°F 28.0°F 92% 30.19 in 7.0 miles South 5.8 mph - N/A   Clear
6:21 PM 28.4°F 26.6°F 93% 30.14 in 2.5 miles SSE 3.5 mph - N/A   Partly Cloudy
6:26 PM 28.4°F 26.6°F 93% 30.14 in 1.0 miles SSE 3.5 mph - N/A   Mist
6:33 PM 28.4°F 26.6°F 93% 30.15 in 0.5 miles SSE 4.6 mph - N/A Fog Light Freezing Fog
6:53 PM 28.9°F 28.0°F 96% 30.19 in 0.5 miles Calm Calm - N/A Fog Light Freezing Fog
7:29 PM 28.4°F 26.6°F 93% 30.13 in 1.5 miles NNE 4.6 mph - N/A   Overcast
7:42 PM 28.4°F 28.4°F 100% 30.13 in 0.5 miles Calm Calm - N/A Fog Light Freezing Fog
7:53 PM 28.9°F 28.0°F 96% 30.18 in 0.2 miles ESE 3.5 mph - N/A Fog Light Freezing Fog
8:53 PM 28.0°F 27.0°F 96% 30.17 in 0.2 miles Calm Calm - N/A Fog Light Freezing Fog
9:43 PM 28.4°F 26.6°F 93% 30.11 in 0.2 miles Calm Calm - N/A Fog Light Freezing Fog
9:53 PM 28.0°F 28.0°F 100% 30.16 in 0.2 miles Calm Calm - N/A Fog Light Freezing Fog
10:04 PM 28.4°F 28.4°F 100% 30.11 in 0.5 miles Calm Calm - N/A Fog Light Freezing Fog
10:51 PM 28.4°F 26.6°F 93% 30.11 in 1.5 miles Calm Calm - N/A   Overcast
10:53 PM 28.0°F 27.0°F 96% 30.16 in 1.8 miles Calm Calm - N/A   Overcast
10:57 PM 28.4°F 26.6°F 93% 30.12 in 3.0 miles Calm Calm - N/A   Mostly Cloudy
11:32 PM 28.4°F 26.6°F 93% 30.11 in 1.8 miles Calm Calm - N/A   Overcast
11:42 PM 26.6°F 24.8°F 93% 30.10 in 0.5 miles Calm Calm - N/A Fog Light Freezing Fog
11:53 PM 27.0°F 26.1°F 96% 30.14 in 0.5 miles Calm Calm - N/A Fog Light Freezing Fog
Moon Phase
Nov. 27 Nov. 28 Dec. 06 Dec. 13 Dec. 20
Sunrise:07:19 AM (PST) Moon Rise:03:47 PM (PST)11/27
Sunset:04:11 PM (PST) Moon Set:06:27 AM (PST)11/27

Copyright © 2014 The Weather Underground, Inc.